Probability
35 35 33 30 27 25 24 23 24 25 25 23 22 22 21 20 19 19 19 18 21 25 25 23 21 18 16 13 7 3 1 0 0 0 0 0 0 0 0 0 0 0 0
32 33 32 29 27 25 23 22 23 25 25 24 23 23 22 21 19 18 17 17 20 23 24 22 20 17 15 12 8 5 3 1 0 0 0 0 0 0 0 0 0 0 0
26 28 29 28 26 24 22 20 21 24 25 24 23 23 22 22 20 18 16 15 17 20 20 18 16 14 13 11 9 7 6 4 2 0 0 0 0 0 0 0 0 0 0
22 24 25 25 24 23 22 20 20 22 23 23 22 21 21 22 21 18 14 12 14 16 16 14 13 12 12 11 10 9 8 6 3 1 0 0 0 0 0 0 0 0 0
20 21 22 21 21 22 23 21 21 22 23 22 20 19 20 20 19 16 13 11 11 13 13 11 10 10 9 9 9 9 9 7 5 2 0 0 0 0 0 0 0 0 0
18 19 19 17 18 20 21 19 19 21 23 22 19 18 18 18 16 14 12 11 10 11 10 9 7 6 7 7 8 8 9 8 6 3 1 0 0 0 0 0 0 0 0
16 18 19 17 15 16 17 17 17 19 20 20 17 15 16 16 15 13 12 11 10 9 8 6 4 4 5 6 6 6 7 7 5 3 1 0 0 0 0 0 0 0 0
13 16 19 18 15 14 16 15 14 15 17 16 15 14 14 14 14 12 11 10 9 8 7 6 3 2 4 5 5 4 5 5 4 3 1 0 0 0 0 0 0 0 0
9 12 17 18 16 14 14 13 12 13 14 14 13 13 12 11 11 11 9 8 7 7 6 6 4 3 4 5 4 3 3 4 4 3 1 0 0 0 0 0 0 0 0
8 10 13 15 14 11 10 9 10 11 12 13 13 12 10 9 8 8 8 7 7 6 6 5 4 4 4 4 4 3 3 4 4 3 1 0 0 0 0 0 0 0 0
6 7 9 11 10 7 5 6 8 9 10 11 11 10 9 7 6 6 6 6 6 6 6 5 5 4 4 3 3 3 4 5 5 4 2 0 0 0 0 0 0 0 0
5 5 5 7 7 4 2 3 6 8 8 8 7 7 7 6 6 5 6 6 6 6 5 4 4 4 3 3 3 3 4 5 5 3 2 0 0 0 0 0 0 0 0
6 5 4 5 5 3 1 1 3 6 6 5 4 4 5 5 4 4 4 4 4 4 4 3 3 3 3 3 3 3 4 5 5 3 2 0 0 0 0 0 0 0 0
6 5 3 3 3 3 1 1 1 3 4 3 4 4 4 4 3 3 3 3 3 3 3 3 3 3 3 3 3 3 3 4 5 3 2 0 0 0 0 0 0 0 0
5 4 3 2 3 3 3 2 1 1 2 2 3 3 3 3 3 3 3 3 3 3 3 3 3 3 3 3 3 3 3 3 4 3 2 1 0 0 0 0 0 0 0
4 3 3 3 3 3 3 2 0 0 1 1 1 1 1 1 2 2 2 2 2 2 2 2 2 2 2 2 1 1 2 3 3 3 2 1 0 0 0 0 0 0 0
2 2 3 3 2 2 2 1 0 0 0 1 1 0 0 0 1 1 1 1 1 1 1 1 1 1 1 1 0 0 1 1 2 3 2 1 0 0 0 0 0 0 0
1 1 1 1 0 0 0 0 0 0 0 1 1 0 0 0 0 0 0 0 0 0 0 0 0 0 0 0 0 0 0 0 1 1 1 1 0 0 0 0 0 0 0
0 0 0 0 0 0 0 0 0 0 0 1 1 0 0 0 0 0 0 0 0 0 0 0 0 0 0 0 0 0 0 0 0 0 0 0 0 0 0 0 0 0 0
0 0 0 0 0 0 0 0 0 0 0 0 0 0 0 0 0 0 0 0 0 0 0 0 0 0 0 0 0 0 0 0 0 0 0 0 0 0 0 0 0 0 0
0 0 0 0 0 0 0 0 0 0 0 0 0 0 0 0 0 0 0 0 0 0 0 0 0 0 0 0 0 0 0 0 0 0 0 0 0 0 0 0 0 0 0
0 0 0 0 0 0 0 0 0 0 0 0 0 0 0 0 0 0 0 0 0 0 0 0 0 0 0 0 0 0 0 0 0 0 0 0 0 0 0 0 0 0 0
0 0 0 0 0 0 0 0 0 0 0 0 0 0 0 0 0 0 0 0 0 0 0 0 0 0 0 0 0 0 0 0 0 0 0 0 0 0 0 0 0 0 0
0 0 1 1 1 0 0 0 0 0 0 0 0 0 0 0 0 0 0 0 0 0 0 0 0 0 0 0 0 0 0 0 0 0 0 0 0 0 0 0 0 0 0
0 0 1 2 1 0 0 0 0 0 0 0 0 0 0 0 0 0 0 0 0 0 0 0 0 0 0 0 0 0 0 0 0 0 0 0 0 0 0 0 0 0 0
0 1 2 2 1 0 0 0 0 0 0 0 0 0 0 0 0 0 0 0 0 0 0 0 0 0 0 0 0 0 0 0 0 0 0 0 0 0 0 0 0 0 0
Wind_Speed
4 5 5 6 6 5 6 6 6 5 5 4 3 3 2 2 1 2 2 3 3 3 2 2 1 1 2 2 2 1 1 1 1 1 3 3 2 1 1 1 1 2 2
3 4 5 5 6 6 6 6 6 5 5 4 3 3 2 2 1 1 2 3 3 3 3 3 2 2 2 2 2 1 1 1 0 1 1 3 4 3 2 2 2 2 2
6 5 5 5 6 6 6 6 6 5 5 4 2 2 2 1 1 0 1 1 2 2 3 3 3 2 2 2 3 3 2 1 1 1 2 1 2 3 3 3 2 2 2
4 4 4 4 5 5 5 5 5 4 5 5 4 4 3 2 2 1 1 1 1 1 2 2 3 2 2 2 3 2 2 2 1 1 1 2 3 2 3 4 3 3 3
5 5 6 6 5 6 5 4 4 3 3 4 4 3 2 2 1 1 1 0 0 1 1 2 2 1 1 2 2 2 2 2 2 2 1 1 1 2 2 3 4 3 3
2 3 4 4 4 5 5 5 5 3 3 3 4 4 4 3 2 1 1 1 0 1 1 1 2 2 1 2 2 2 2 3 3 2 2 2 2 2 2 3 4 4 5
2 3 3 3 4 5 4 4 5 4 4 4 4 4 4 4 4 3 2 2 1 1 2 2 2 2 2 2 2 2 3 3 3 3 3 3 3 3 3 2 3 4 4
1 2 3 3 3 4 4 4 4 4 4 5 4 4 4 3 2 2 2 2 2 2 2 2 2 2 2 2 2 2 3 3 3 4 3 3 3 2 3 3 2 3 3
1 2 1 3 3 3 4 5 4 3 4 4 4 3 3 3 3 2 2 2 2 2 2 2 2 2 2 2 2 2 3 3 3 3 3 3 3 2 2 3 3 3 3
2 2 1 1 2 2 3 3 3 3 3 3 3 3 3 3 3 2 2 2 2 2 2 2 2 2 2 2 2 3 3 3 3 3 3 3 2 2 2 2 2 3 3
2 0 1 2 2 2 2 2 2 2 2 2 3 3 3 3 3 2 3 3 2 2 2 3 3 3 3 2 2 3 3 3 3 3 3 4 3 2 2 2 2 2 2
0 1 1 2 2 2 2 2 3 3 3 3 2 2 2 2 2 3 3 2 2 2 3 3 2 3 2 2 2 3 3 3 3 3 3 4 2 3 2 2 3 3 3
1 1 1 1 2 2 2 2 2 3 3 2 2 2 2 2 2 2 2 2 2 2 2 2 3 3 2 2 3 3 3 3 3 3 3 3 2 3 3 3 3 3 3
1 1 1 1 2 2 2 2 2 2 3 3 3 3 2 3 3 2 2 2 2 3 3 3 3 2 2 2 3 3 2 3 3 3 3 3 3 4 4 3 4 3 3
1 0 0 1 1 1 1 1 2 2 2 2 2 3 3 2 2 2 2 2 2 3 3 2 1 1 1 1 1 2 2 2 3 3 3 4 4 5 4 3 3 3 2
2 2 1 1 1 1 2 1 1 1 2 2 2 2 2 2 2 2 2 1 1 1 1 1 1 1 1 2 2 2 2 2 3 4 4 4 4 5 5 6 5 4 4
3 2 2 1 1 2 2 2 2 2 2 2 2 2 2 2 1 1 1 1 1 1 0 0 0 1 3 4 4 3 2 3 3 4 4 4 4 4 4 5 5 5 6
2 2 2 2 2 1 1 2 2 2 2 2 2 2 1 1 1 1 1 1 0 0 0 0 1 1 3 5 4 4 2 3 4 4 4 4 5 5 4 3 4 5 5
2 2 2 2 2 1 2 2 2 2 2 1 1 2 2 2 2 1 1 1 0 0 1 1 1 1 4 5 4 3 2 3 4 4 3 3 4 6 5 3 4 5 6
3 2 1 0 1 1 2 3 3 3 2 2 2 1 2 2 2 2 1 1 1 1 1 1 2 2 3 5 5 3 1 2 3 4 4 4 4 5 4 2 3 4 6
4 2 1 0 1 1 2 3 3 3 3 2 2 1 1 2 2 1 1 0 0 0 1 2 3 3 3 4 5 3 0 2 2 3 3 3 5 5 5 3 3 5 5
3 2 1 1 1 1 2 2 2 2 2 2 2 1 1 1 1 1 1 0 0 0 2 2 3 3 3 3 4 4 2 2 1 3 3 4 6 6 6 4 5 6 5
3 2 1 1 1 1 3 3 3 2 2 2 1 1 1 1 1 1 1 0 0 0 1 1 2 3 3 3 4 4 4 3 2 3 5 6 8 7 5 5 6 4 2
3 2 1 1 2 2 2 3 3 2 2 2 2 1 1 1 1 0 1 1 1 1 1 1 2 3 3 3 3 2 3 3 3 3 5 6 6 5 5 5 3 2 1
2 2 2 2 3 2 2 3 2 2 2 2 1 1 1 1 1 1 1 2 3 3 3 3 2 2 3 5 4 2 2 2 2 2 2 2 3 3 3 3 3 2 2
2 1 1 2 2 2 3 3 3 3 3 2 1 1 1 1 1 1 1 3 3 4 5 5 4 3 4 5 4 3 3 3 2 1 2 3 3 3 3 3 3 3 2
Wind_Direction
165 150 152 151 150 148 146 153 155 159 154 151 154 156 168 172 172 188 186 180 184 187 176 183 194 186 192 210 210 194 246 273 307 351 324 319 318 308 277 259 250 259 261
151 153 152 156 160 161 160 158 160 164 165 167 168 165 160 172 177 185 196 199 192 185 179 187 198 197 210 224 205 177 197 255 166 130 37 336 332 325 301 290 269 267 270
159 169 167 166 165 171 170 167 165 164 167 158 136 115 85 67 67 127 237 228 200 192 189 186 191 193 188 211 213 191 181 214 267 147 143 152 260 302 309 294 280 281 276
157 174 170 182 181 177 166 155 160 162 163 154 151 151 161 181 211 204 211 219 179 180 189 177 180 196 193 207 227 196 186 173 228 275 202 186 185 205 299 309 296 281 272
172 176 176 178 181 169 162 157 145 153 163 158 155 152 156 181 179 143 132 162 204 194 199 184 178 196 199 216 229 202 191 184 194 211 222 233 227 199 205 284 303 304 280
166 160 164 154 153 153 153 154 150 154 164 157 156 167 177 173 155 152 154 180 218 259 243 191 188 198 203 221 230 215 204 208 205 210 202 196 207 224 209 243 276 287 285
146 141 143 151 160 158 156 155 156 166 171 165 174 184 183 174 173 183 189 181 190 227 241 210 206 211 219 225 230 228 226 220 216 219 220 218 222 213 204 223 258 275 286
73 140 165 157 158 163 161 158 165 178 181 173 180 184 173 173 180 186 190 191 201 215 220 218 219 222 224 235 235 234 236 227 225 230 224 227 235 216 208 208 221 282 291
24 86 115 148 154 165 173 165 165 176 181 173 164 170 176 177 179 181 179 196 217 222 220 223 223 238 236 241 245 244 247 236 229 232 231 233 245 233 227 216 201 207 266
31 68 113 163 165 175 169 156 161 166 172 173 168 175 187 193 182 173 193 210 223 226 232 247 242 245 244 245 249 257 247 238 242 232 231 244 250 246 240 233 225 210 214
54 347 209 172 160 173 155 157 163 152 158 175 177 171 179 181 160 181 216 227 229 227 229 231 240 247 248 245 245 261 240 234 252 248 231 245 246 250 257 247 237 231 209
287 279 238 160 154 168 161 165 171 161 171 175 173 177 177 161 173 205 222 223 226 229 230 231 238 246 248 246 240 260 252 237 248 256 247 253 258 258 263 256 253 248 230
4 24 53 149 169 170 172 173 178 174 169 154 144 141 171 173 196 214 223 222 224 238 245 238 239 247 250 254 254 250 253 244 245 250 244 249 252 263 266 257 256 257 257
16 22 16 197 172 172 183 187 192 182 164 163 158 163 195 204 198 205 221 233 236 240 250 245 241 243 247 254 260 255 257 267 265 255 244 244 240 244 254 260 256 256 259
338 238 255 258 169 157 159 194 205 183 158 158 167 191 208 213 188 206 229 239 244 240 242 242 254 256 247 260 262 254 264 274 285 283 270 262 264 257 251 257 252 247 245
325 347 12 29 148 170 172 189 198 187 156 164 181 194 190 210 201 219 233 243 254 260 248 202 195 282 291 292 284 265 275 276 275 280 282 280 271 277 274 271 262 238 229
6 4 324 300 234 211 181 184 191 160 158 175 182 189 188 183 200 218 187 218 250 281 335 144 183 280 293 289 288 294 266 267 269 269 271 282 286 283 272 281 285 275 260
339 328 311 291 257 250 202 178 157 144 163 181 192 192 161 151 158 141 161 234 234 212 236 243 245 263 296 294 296 300 290 278 276 268 258 262 276 281 278 280 291 288 283
284 282 278 254 240 224 167 141 140 140 153 177 182 188 165 147 145 151 206 233 187 260 243 244 250 276 299 305 303 305 311 308 302 295 285 269 267 288 300 288 285 295 295
308 310 307 315 204 224 150 141 153 154 180 196 193 168 154 149 169 192 214 226 172 245 279 302 291 274 289 306 312 310 306 310 308 309 301 287 280 294 302 273 270 288 292
309 320 339 345 231 204 146 151 155 186 206 189 155 132 147 168 193 202 226 192 132 15 333 317 308 299 291 304 315 314 235 272 299 308 307 302 305 304 306 297 263 269 285
316 324 339 306 266 180 143 150 191 218 190 153 144 150 172 212 185 158 161 130 119 33 324 328 322 314 307 307 313 308 286 276 276 290 295 300 316 317 313 307 301 298 302
300 300 272 284 281 200 156 174 223 206 161 157 173 186 200 249 172 160 183 212 251 259 295 309 306 305 309 312 311 312 312 305 279 286 302 310 315 318 312 309 314 318 315
284 277 259 240 270 250 203 200 214 184 160 180 196 189 186 270 298 251 196 184 225 239 267 278 286 302 314 315 318 326 328 329 321 311 313 315 315 315 307 313 320 316 295
272 249 226 236 250 239 217 214 204 173 170 190 201 202 204 217 242 259 247 225 233 218 211 236 238 259 295 293 300 317 321 312 297 315 328 339 339 337 333 332 329 330 340
257 254 266 258 254 229 219 223 207 179 172 185 211 210 223 240 227 221 309 318 270 265 247 240 234 253 257 285 313 327 333 333 332 39 346 333 329 320 318 323 324 328 330